Location: Liège
(50.6326°N, 5.5797°E)
Time: 03:11:18
(UTC+02:00)

ISS - Visible Passes

Search period start: 24 September 2017 00:00
Search period end: 04 October 2017 00:00
Orbit: 401 x 407 km, 51.6° (Epoch: 24 September)

Date Brightness Start Highest point End Pass type
(mag) Time Alt. Az. Time Alt. Az. Time Alt. Az.
25 Sep -1.3 21:19:05 10° SSW 21:19:31 12° S 21:19:31 12° S visible
26 Sep -1.8 20:27:48 10° S 20:29:33 14° SE 20:29:53 14° SE visible
26 Sep -1.0 22:02:16 10° SW 22:02:34 12° SW 22:02:34 12° SW visible
27 Sep -3.0 21:10:10 10° SW 21:12:44 35° S 21:12:44 35° S visible
28 Sep -2.5 20:18:17 10° SSW 20:21:01 25° SE 20:22:45 16° ESE visible
28 Sep -1.8 21:53:55 10° WSW 21:55:25 25° WSW 21:55:25 25° WSW visible
29 Sep -3.8 21:01:37 10° WSW 21:04:52 62° SSE 21:05:17 55° ESE visible
30 Sep -3.3 20:09:25 10° SW 20:12:33 43° SSE 20:15:03 15° E visible
30 Sep -2.3 21:45:39 10° W 21:47:42 35° W 21:47:42 35° W visible
01 Oct -3.9 20:53:14 10° WSW 20:56:31 90° SSE 20:57:23 46° ENE visible
01 Oct -0.4 22:29:48 10° W 22:30:02 12° W 22:30:02 12° W visible
02 Oct -3.8 20:00:52 10° WSW 20:04:07 70° SSE 20:07:01 13° ENE visible
02 Oct -2.5 21:37:22 10° W 21:39:39 41° WNW 21:39:39 41° WNW visible
03 Oct -3.8 20:44:54 10° W 20:48:11 74° N 20:49:14 40° ENE visible
03 Oct -0.5 22:21:27 10° WNW 22:21:51 13° WNW 22:21:51 13° WNW visible
